Weather History for Philadelphia Wings Airport, PA

Change the Weather History Date:

Friday, October 4, 2013

  Actual Average (KPNE) Record (KPNE)
Temperature  
Mean Temperature 70 °F -  
Max Temperature 86 °F 67 °F 87 °F (2013)
Min Temperature 55 °F 48 °F 35 °F (1996)
Cooling Degree Days 6    
Growing Degree Days 20 (Base 50)    
Moisture  
Dew Point 61 °F    
Average Humidity 78    
Maximum Humidity 100    
Minimum Humidity 45    
Precipitation  
Precipitation 0.00 in - - ()
Sea Level Pressure  
Sea Level Pressure 30.04 in    
Wind  
Wind Speed 1 mph (WSW)    
Max Wind Speed 8 mph    
Max Gust Speed -    
Visibility 7 miles    
Events      
Averages and records for this station are not official NWS values.
T = Trace of Precipitation, MM = Missing Value Source: NWS Daily Summary

Daily Weather History Graph

Daily Weather History Graph

Search for Another Location

Airport:

Trip Planner

Search our weather history database for the weather conditions in past years. The results will help you decide how hot, cold, wet, or windy it might be!

Date:

Astronomy

Oct. 04, 2013 Rise Set
Actual Time 7:00 AM EDT 6:38 PM EDT
Civil Twilight 6:33 AM EDT 7:05 PM EDT
Nautical Twilight 6:02 AM EDT 7:36 PM EDT
Astronomical Twilight 5:30 AM EDT 8:08 PM EDT
Moon 6:33 AM EDT (10/4) 6:19 PM EDT (10/4)
Length of Visible Light 12h 31m
Length of Day
11h 37m
Waning Crescent, 0% of the Moon is Illuminated
Oct 4
Waning Crescent
Oct 4
New
Oct 11
First Quarter
Oct 18
Full
Oct 26
Last Quarter

Hourly Weather History & Observations

Time (EDT) Temp. Heat Index Dew Point Humidity Pressure Visibility Wind Dir Wind Speed Gust Speed Precip Events Conditions
12:35 AM 60.8 °F - 60.8 °F 100% 30.06 in 5.0 mi Calm Calm - N/A   Clear
12:55 AM 60.8 °F - 59.0 °F 94% 30.06 in 3.0 mi Calm Calm - N/A   Unknown
1:15 AM 60.8 °F - 59.0 °F 94% 30.06 in 3.0 mi Calm Calm - N/A   Unknown
1:35 AM 59.0 °F - 59.0 °F 100% 30.06 in 1.2 mi Calm Calm - N/A   Unknown
1:55 AM 59.0 °F - 59.0 °F 100% 30.06 in 1.8 mi Calm Calm - N/A   Unknown
2:15 AM 59.0 °F - 57.2 °F 94% 30.06 in 1.5 mi Calm Calm - N/A   Unknown
2:35 AM 59.0 °F - 57.2 °F 94% 30.06 in 2.0 mi Calm Calm - N/A   Unknown
2:55 AM 59.0 °F - 57.2 °F 94% 30.05 in 2.5 mi Calm Calm - N/A   Unknown
3:15 AM 59.0 °F - 57.2 °F 94% 30.05 in 1.5 mi Calm Calm - N/A   Unknown
3:35 AM 57.2 °F - 55.4 °F 94% 30.05 in 0.5 mi Calm Calm - N/A   Unknown
3:55 AM 57.2 °F - 55.4 °F 94% 30.05 in 0.5 mi Calm Calm - N/A   Unknown
4:15 AM 57.2 °F - 55.4 °F 94% 30.05 in 0.5 mi Calm Calm - N/A   Unknown
4:35 AM 57.2 °F - 55.4 °F 94% 30.05 in 0.2 mi Calm Calm - N/A   Unknown
4:55 AM 55.4 °F - 55.4 °F 100% 30.05 in 0.5 mi Calm Calm - N/A   Unknown
5:15 AM 57.2 °F - 55.4 °F 94% 30.05 in 1.8 mi Calm Calm - N/A   Unknown
5:35 AM 55.4 °F - 55.4 °F 100% 30.06 in 1.0 mi Calm Calm - N/A   Overcast
5:55 AM 55.4 °F - 55.4 °F 100% 30.05 in 1.8 mi Calm Calm - N/A   Overcast
6:15 AM 55.4 °F - 55.4 °F 100% 30.06 in 1.2 mi Calm Calm - N/A   Mostly Cloudy
6:35 AM 55.4 °F - 55.4 °F 100% 30.06 in 0.5 mi Calm Calm - N/A   Mostly Cloudy
6:55 AM 55.4 °F - 55.4 °F 100% 30.06 in 0.8 mi Calm Calm - N/A   Mostly Cloudy
7:15 AM 57.2 °F - 57.2 °F 100% 30.07 in 1.0 mi Calm Calm - N/A   Overcast
7:35 AM 59.0 °F - 59.0 °F 100% 30.07 in 1.8 mi Calm Calm - N/A   Mostly Cloudy
7:55 AM 59.0 °F - 59.0 °F 100% 30.08 in 1.5 mi Calm Calm - N/A   Unknown
8:35 AM 64.4 °F - 64.4 °F 100% 30.07 in 2.0 mi Calm Calm - N/A   Unknown
8:55 AM 68.0 °F - 64.4 °F 88% 30.08 in 3.0 mi Calm Calm - N/A   Unknown
9:15 AM 69.8 °F - 64.4 °F 83% 30.08 in 4.0 mi Calm Calm - N/A   Clear
9:35 AM 73.4 °F - 64.4 °F 73% 30.08 in 7.0 mi WSW 3.5 mph - N/A   Scattered Clouds
9:55 AM 73.4 °F - 64.4 °F 73% 30.08 in 10.0 mi WSW 4.6 mph - N/A   Scattered Clouds
10:15 AM 77.0 °F - 62.6 °F 61% 30.08 in 10.0 mi West 3.5 mph - N/A   Clear
10:35 AM 77.0 °F - 62.6 °F 61% 30.08 in 10.0 mi WSW 3.5 mph - N/A   Clear
10:55 AM 78.8 °F - 62.6 °F 57% 30.07 in 10.0 mi Calm Calm - N/A   Clear
11:15 AM 80.6 °F 81.8 °F 62.6 °F 54% 30.06 in 10.0 mi WSW 5.8 mph - N/A   Clear
11:35 AM 80.6 °F 82.3 °F 64.4 °F 58% 30.06 in 10.0 mi West 4.6 mph - N/A   Clear
11:55 AM 80.6 °F 81.8 °F 62.6 °F 54% 30.06 in 10.0 mi WSW 6.9 mph - N/A   Clear
12:15 PM 80.6 °F 81.8 °F 62.6 °F 54% 30.05 in 10.0 mi WSW 4.6 mph - N/A   Clear
12:35 PM 82.4 °F 83.9 °F 64.4 °F 54% 30.05 in 10.0 mi WSW 5.8 mph - N/A   Clear
12:55 PM 82.4 °F 83.4 °F 62.6 °F 51% 30.04 in 10.0 mi SW 6.9 mph - N/A   Clear
1:15 PM 82.4 °F 83.4 °F 62.6 °F 51% 30.03 in 10.0 mi SSW 3.5 mph - N/A   Clear
1:35 PM 84.2 °F 85.0 °F 62.6 °F 48% 30.01 in 10.0 mi SW 6.9 mph - N/A   Scattered Clouds
1:55 PM 84.2 °F 85.6 °F 64.4 °F 51% 30.01 in 10.0 mi WSW 6.9 mph - N/A   Scattered Clouds
2:15 PM 84.2 °F 85.0 °F 62.6 °F 48% 30.00 in 10.0 mi WNW 8.1 mph - N/A   Scattered Clouds
2:35 PM 84.2 °F 85.0 °F 62.6 °F 48% 30.00 in 10.0 mi West 4.6 mph - N/A   Scattered Clouds
2:55 PM 86.0 °F 86.6 °F 62.6 °F 45% 30.00 in 10.0 mi WSW 8.1 mph - N/A   Scattered Clouds
3:15 PM 82.4 °F 83.4 °F 62.6 °F 51% 30.00 in 10.0 mi WSW 4.6 mph - N/A   Clear
3:35 PM 84.2 °F 85.0 °F 62.6 °F 48% 30.00 in 10.0 mi SW 8.1 mph - N/A   Clear
3:55 PM 84.2 °F 85.0 °F 62.6 °F 48% 30.00 in 10.0 mi West 5.8 mph - N/A   Scattered Clouds
4:15 PM 84.2 °F 85.0 °F 62.6 °F 48% 30.00 in 10.0 mi West 6.9 mph - N/A   Scattered Clouds
4:35 PM 82.4 °F 83.4 °F 62.6 °F 51% 30.00 in 10.0 mi WSW 4.6 mph - N/A   Scattered Clouds
4:55 PM 82.4 °F 83.4 °F 62.6 °F 51% 30.00 in 10.0 mi WSW 6.9 mph - N/A   Scattered Clouds
5:15 PM 80.6 °F 81.8 °F 62.6 °F 54% 30.00 in 10.0 mi West 5.8 mph - N/A   Clear
5:35 PM 80.6 °F 81.8 °F 62.6 °F 54% 30.00 in 10.0 mi SW 6.9 mph - N/A   Clear
5:55 PM 80.6 °F 81.8 °F 62.6 °F 54% 30.00 in 10.0 mi WSW 6.9 mph - N/A   Clear
6:15 PM 78.8 °F - 62.6 °F 57% 30.00 in 10.0 mi West 3.5 mph - N/A   Clear
6:35 PM 77.0 °F - 62.6 °F 61% 30.00 in 10.0 mi Calm Calm - N/A   Clear
6:55 PM 71.6 °F - 64.4 °F 78% 30.00 in 10.0 mi Calm Calm - N/A   Clear
7:15 PM 69.8 °F - 64.4 °F 83% 30.00 in 10.0 mi Calm Calm - N/A   Clear
7:35 PM 68.0 °F - 64.4 °F 88% 30.01 in 10.0 mi Calm Calm - N/A   Clear
7:55 PM 68.0 °F - 64.4 °F 88% 30.01 in 10.0 mi Calm Calm - N/A   Clear
8:15 PM 66.2 °F - 64.4 °F 94% 30.01 in 10.0 mi Calm Calm - N/A   Clear
8:35 PM 68.0 °F - 64.4 °F 88% 30.03 in 10.0 mi Calm Calm - N/A   Clear
8:55 PM 68.0 °F - 64.4 °F 88% 30.03 in 10.0 mi Calm Calm - N/A   Clear
9:15 PM 68.0 °F - 64.4 °F 88% 30.03 in 10.0 mi Calm Calm - N/A   Clear
9:35 PM 68.0 °F - 64.4 °F 88% 30.04 in 10.0 mi Calm Calm - N/A   Clear
9:55 PM 66.2 °F - 62.6 °F 88% 30.03 in 10.0 mi Calm Calm - N/A   Clear
10:15 PM 64.4 °F - 62.6 °F 94% 30.03 in 10.0 mi Calm Calm - N/A   Clear
10:35 PM 64.4 °F - 62.6 °F 94% 30.03 in 10.0 mi Calm Calm - N/A   Clear
10:55 PM 62.6 °F - 60.8 °F 94% 30.03 in 7.0 mi Calm Calm - N/A   Clear
11:15 PM 62.6 °F - 60.8 °F 94% 30.03 in 5.0 mi Calm Calm - N/A   Clear
11:35 PM 62.6 °F - 62.6 °F 100% 30.03 in 7.0 mi Calm Calm - N/A   Clear
11:55 PM 64.4 °F - 62.6 °F 94% 30.03 in 7.0 mi Calm Calm - N/A   Clear